GW3762 Weather Reports


time (UTC)temp
F
wind
direction
speed
knots
gust
knots
rain 1hr
in
rain 24hr
in
rain mn
in
humidity
%
barometer
mb
20260509040458 49 76 0.9 2.6 0.00 0.00 0.00 78 1014.2
20260509035959 49 74 0.9 0.9 0.00 0.00 0.00 76 1014.1
20260509035458 49 74 0.9 0.9 0.00 0.00 0.00 75 1014.1
20260509034958 49 74 0.0 0.0 0.00 0.00 0.00 73 1014.0
20260509033958 49 74 0.0 0.0 0.00 0.00 0.00 71 1014.0
20260509033458 49 74 0.0 1.7 0.00 0.00 0.00 70 1014.0
20260509032958 49 74 0.0 1.7 0.00 0.00 0.00 69 1013.9
20260509032458 49 74 0.0 1.7 0.00 0.00 0.00 68 1013.8
20260509031958 49 74 0.9 1.7 0.00 0.00 0.00 67 1013.8
20260509031458 49 74 0.9 1.7 0.00 0.00 0.00 67 1013.7
20260509030958 50 74 0.9 1.7 0.00 0.00 0.00 68 1013.7
20260509030458 50 74 0.9 1.7 0.00 0.00 0.00 64 1013.8
20260509030003 51 74 0.9 1.7 0.00 0.00 0.00 65 1013.7
20260509024959 51 74 0.9 1.7 0.00 0.00 0.00 60 1013.7
20260509024459 51 74 0.9 2.6 0.00 0.00 0.00 60 1013.5
20260509023959 51 74 2.6 2.6 0.00 0.00 0.00 61 1013.5
20260509023459 51 261 0.0 0.0 0.00 0.00 0.00 59 1013.5
20260509023000 51 261 0.0 0.0 0.00 0.00 0.00 60 1013.6
20260509022459 51 261 0.0 0.9 0.00 0.00 0.00 61 1013.6
20260509021959 51 261 0.9 0.9 0.00 0.00 0.00 63 1013.5
20260509021459 50 261 0.9 0.9 0.00 0.00 0.00 63 1013.6
20260509020959 50 261 0.0 1.7 0.00 0.00 0.00 62 1013.6
20260509020459 50 261 0.0 1.7 0.00 0.00 0.00 60 1013.5
20260509020002 50 261 0.9 0.9 0.00 0.00 0.00 59 1013.5
20260509015459 51 261 0.0 0.0 0.00 0.00 0.00 60 1013.5
20260509014959 51 261 0.0 0.0 0.00 0.00 0.00 58 1013.5
20260509014500 50 261 0.0 0.0 0.00 0.00 0.00 59 1013.4
20260509014000 50 261 0.0 0.0 0.00 0.00 0.00 59 1013.4
20260509013459 50 261 0.0 0.0 0.00 0.00 0.00 61 1013.3
20260509013000 50 261 0.0 0.0 0.00 0.00 0.00 64 1013.3
20260509012459 50 261 0.0 0.0 0.00 0.00 0.00 64 1013.3
20260509011959 50 261 0.0 0.0 0.00 0.00 0.00 63 1013.2
20260509011459 50 261 0.0 0.0 0.00 0.00 0.00 63 1013.2
20260509010959 50 261 0.0 0.0 0.00 0.00 0.00 63 1013.1
20260509010002 50 261 0.0 0.0 0.00 0.00 0.00 61 1012.9
20260509005459 50 261 0.0 0.0 0.00 0.00 0.00 61 1012.7
20260509004959 51 261 0.0 0.0 0.00 0.00 0.00 62 1012.7
20260509004459 51 261 0.0 0.0 0.00 0.00 0.00 61 1012.6
20260509003959 51 261 0.0 0.0 0.00 0.00 0.00 61 1012.4
20260509003459 51 261 0.0 0.0 0.00 0.00 0.00 62 1012.3
20260509002959 51 261 0.0 0.0 0.00 0.00 0.00 62 1012.2
20260509002501 51 261 0.0 0.0 0.00 0.00 0.00 63 1012.2
20260509001959 51 261 0.0 0.0 0.00 0.00 0.00 63 1012.1
20260509001459 51 261 0.0 0.0 0.00 0.00 0.00 64 1012.2
20260509000959 51 261 0.0 0.0 0.00 0.00 0.00 63 1012.3
20260509000459 51 261 0.0 0.0 0.00 0.00 0.00 64 1012.2
20260508234958 51 261 0.0 0.9 0.00 0.00 0.00 66 1012.0
20260508234458 51 261 0.0 2.6 0.00 0.00 0.00 66 1011.9
20260508233958 52 261 0.0 2.6 0.00 0.00 0.00 65 1011.8
20260508233457 52 261 1.7 2.6 0.00 0.00 0.00 65 1011.8
20260508232958 52 261 1.7 2.6 0.00 0.00 0.00 65 1011.7
20260508232458 53 261 0.9 2.6 0.00 0.00 0.00 64 1011.6
20260508231958 53 261 1.7 3.5 0.00 0.00 0.00 64 1011.5
20260508231458 53 261 1.7 3.5 0.00 0.00 0.00 63 1011.4
20260508230958 54 252 1.7 3.5 0.00 0.00 0.00 62 1011.4
20260508230458 54 257 1.7 3.5 0.00 0.00 0.00 62 1011.4
20260508225958 54 269 2.6 6.1 0.00 0.00 0.00 63 1011.4
20260508225458 54 247 2.6 6.1 0.00 0.00 0.00 60 1011.3
20260508224958 54 261 2.6 6.1 0.00 0.00 0.00 62 1011.2
20260508224458 54 254 3.5 6.1 0.00 0.00 0.00 63 1011.1
20260508223958 54 254 1.7 3.5 0.00 0.00 0.00 63 1011.0
20260508222958 55 257 1.7 3.5 0.00 0.00 0.00 62 1011.1
20260508222459 55 252 0.0 3.5 0.00 0.00 0.00 63 1011.1
20260508221458 55 246 1.7 6.1 0.00 0.00 0.00 62 1011.2
20260508220458 55 277 2.6 4.3 0.00 0.00 0.00 62 1011.3
20260508215959 55 250 1.7 3.5 0.00 0.00 0.00 63 1011.3
20260508215459 55 258 0.9 6.1 0.00 0.00 0.00 64 1011.3
20260508214958 55 257 2.6 7.0 0.00 0.00 0.00 61 1011.3
20260508214500 55 257 3.5 7.0 0.00 0.00 0.00 60 1011.2
20260508213958 55 244 3.5 6.1 0.00 0.00 0.00 61 1011.2
20260508213457 55 242 1.7 5.2 0.00 0.00 0.00 63 1011.3
20260508212958 55 261 3.5 6.1 0.00 0.00 0.00 63 1011.3
20260508212458 55 237 4.3 5.2 0.00 0.00 0.00 61 1011.2
20260508211457 56 261 2.6 7.8 0.00 0.00 0.00 61 1011.2
20260508210957 56 245 1.7 6.1 0.00 0.00 0.00 62 1011.1
20260508210458 56 239 2.6 6.1 0.00 0.00 0.00 63 1011.1
20260508205500 56 283 1.7 7.0 0.00 0.00 0.00 62 1011.3
20260508205000 56 257 1.7 7.0 0.00 0.00 0.00 65 1011.3
20260508204459 56 274 2.6 7.8 0.00 0.00 0.00 62 1011.1
20260508204000 56 252 3.5 7.8 0.00 0.00 0.00 64 1011.0
20260508203458 56 256 1.7 5.2 0.00 0.00 0.00 63 1011.2
20260508202959 55 264 1.7 4.3 0.00 0.00 0.00 67 1011.2
20260508202459 54 257 2.6 4.3 0.00 0.00 0.00 65 1011.1
20260508201959 55 249 1.7 7.8 0.00 0.00 0.00 64 1011.2
20260508201459 55 230 2.6 11.3 0.00 0.00 0.00 62 1011.4
20260508200959 56 219 7.8 11.3 0.00 0.00 0.00 60 1011.4
20260508200459 56 234 6.1 8.7 0.00 0.00 0.00 65 1011.4
20260508195959 56 244 3.5 9.6 0.00 0.00 0.00 64 1011.4
20260508195458 55 244 3.5 7.8 0.00 0.00 0.00 66 1011.4
20260508194958 53 243 5.2 7.8 0.00 0.00 0.00 67 1011.4
20260508194458 52 288 2.6 7.8 0.00 0.00 0.00 67 1011.5
20260508193959 53 250 4.3 7.8 0.00 0.00 0.00 67 1011.5
20260508193458 53 250 3.5 7.0 0.00 0.00 0.00 66 1011.6
20260508191959 54 286 1.7 8.7 0.00 0.00 0.00 64 1011.5
20260508191459 54 252 2.6 9.6 0.00 0.00 0.00 61 1011.3
20260508190959 55 259 2.6 13.9 0.00 0.00 0.00 58 1011.2
20260508190458 55 240 8.7 13.9 0.00 0.00 0.00 56 1010.8
20260508190000 55 244 4.3 11.3 0.00 0.00 0.00 54 1010.7
20260508185458 56 231 3.5 7.8 0.00 0.00 0.00 54 1010.6
20260508184958 57 251 3.5 11.3 0.00 0.00 0.00 53 1010.4
20260508184458 58 244 8.7 10.4 0.00 0.00 0.00 50 1010.3
20260508183958 59 229 3.5 7.8 0.00 0.00 0.00 50 1010.3
20260508183501 59 252 7.0 7.8 0.00 0.00 0.00 52 1010.5
20260508182957 58 274 1.7 4.3 0.00 0.00 0.00 52 1010.8
20260508182457 59 250 3.5 7.8 0.00 0.00 0.00 53 1010.8
20260508181958 59 241 3.5 7.8 0.00 0.00 0.00 53 1010.8
20260508180458 54 232 3.5 10.4 0.00 0.00 0.00 59 1011.0
20260508180001 54 255 6.1 10.4 0.00 0.00 0.00 54 1011.1
20260508175500 55 228 5.2 9.6 0.00 0.00 0.00 55 1011.1
20260508174959 55 217 2.6 8.7 0.00 0.00 0.00 56 1010.9
20260508174000 55 229 4.3 14.8 0.00 0.00 0.00 53 1010.9
20260508173458 56 226 6.1 13.9 0.00 0.00 0.00 51 1010.8
20260508173006 57 286 3.5 9.6 0.00 0.00 0.00 50 1011.0
20260508172000 58 265 5.2 13.0 0.00 0.00 0.00 52 1010.9
20260508171459 57 229 0.9 4.3 0.00 0.00 0.00 50 1011.0
20260508170959 55 254 0.9 6.1 0.00 0.00 0.00 55 1011.1
20260508170459 55 249 4.3 6.1 0.00 0.00 0.00 53 1011.0
20260508170000 55 249 1.7 8.7 0.00 0.00 0.00 52 1011.1
20260508165457 55 256 6.1 10.4 0.00 0.00 0.00 52 1011.0
20260508164957 56 259 8.7 8.7 0.00 0.00 0.00 52 1011.0
20260508164458 57 252 4.3 10.4 0.00 0.00 0.00 49 1010.9
20260508163458 58 240 2.6 7.8 0.00 0.00 0.00 47 1011.0
20260508163001 60 252 4.3 7.8 0.00 0.00 0.00 50 1011.0
20260508162500 60 229 6.1 7.8 0.00 0.00 0.00 49 1011.1
20260508161957 60 249 4.3 7.0 0.00 0.00 0.00 45 1011.0
20260508161502 60 260 5.2 9.6 0.00 0.00 0.00 48 1011.2
20260508160457 59 246 2.6 7.0 0.00 0.00 0.00 48 1011.1
20260508155959 58 289 2.6 7.0 0.00 0.00 0.00 46 1011.4
20260508155457 56 254 2.6 4.3 0.00 0.00 0.00 51 1011.3
20260508154958 58 233 2.6 8.7 0.00 0.00 0.00 48 1011.4
20260508154458 59 286 1.7 9.6 0.00 0.00 0.00 46 1011.4
20260508153457 59 263 5.2 11.3 0.00 0.00 0.00 50 1011.3
20260508152958 59 251 6.1 11.3 0.00 0.00 0.00 50 1011.3
20260508152458 58 252 2.6 7.8 0.00 0.00 0.00 52 1011.3
20260508151958 60 259 7.8 7.8 0.00 0.00 0.00 56 1011.4
20260508151458 59 257 0.9 6.1 0.00 0.00 0.00 60 1011.4
20260508150958 58 263 6.1 7.0 0.00 0.00 0.00 55 1011.5
20260508150458 58 232 2.6 7.0 0.00 0.00 0.00 54 1011.5
20260508150000 58 242 4.3 4.3 0.00 0.00 0.00 55 1011.5
20260508145457 58 247 0.9 4.3 0.00 0.00 0.00 56 1011.6
20260508144958 58 225 2.6 3.5 0.00 0.00 0.00 53 1011.5
20260508144459 58 238 2.6 4.3 0.00 0.00 0.00 54 1011.5
20260508143957 57 265 2.6 4.3 0.00 0.00 0.00 55 1011.5
20260508143458 57 281 1.7 4.3 0.00 0.00 0.00 54 1011.5
20260508142957 57 291 1.7 6.1 0.00 0.00 0.00 57 1011.5
20260508142458 57 271 1.7 7.0 0.00 0.00 0.00 56 1011.7
20260508141958 56 224 1.7 7.0 0.00 0.00 0.00 54 1011.6
20260508141458 56 267 1.7 3.5 0.00 0.00 0.00 58 1011.7
20260508141001 55 238 1.7 5.2 0.00 0.00 0.00 59 1011.8
20260508140503 56 232 0.9 4.3 0.00 0.00 0.00 57 1011.8
20260508140000 56 221 2.6 5.2 0.00 0.00 0.00 54 1011.7
20260508135458 55 284 2.6 5.2 0.00 0.00 0.00 57 1011.8
20260508134958 55 246 1.7 5.2 0.00 0.00 0.00 59 1011.7
20260508134457 55 247 2.6 5.2 0.00 0.00 0.00 59 1011.8
20260508133957 55 248 1.7 4.3 0.00 0.00 0.00 63 1011.8
20260508133001 54 296 2.6 3.5 0.00 0.00 0.00 58 1012.0
20260508132458 54 288 1.7 3.5 0.00 0.00 0.00 62 1012.1
20260508131459 53 266 1.7 3.5 0.00 0.00 0.00 61 1012.2
20260508130958 53 283 1.7 4.3 0.00 0.00 0.00 62 1012.2
20260508130458 52 256 1.7 4.3 0.00 0.00 0.00 68 1012.2
20260508125959 51 259 2.6 3.5 0.00 0.00 0.00 67 1012.2
20260508125458 50 277 2.6 4.3 0.00 0.00 0.00 68 1012.2
20260508125001 50 269 1.7 4.3 0.00 0.00 0.00 69 1012.2
20260508124458 49 250 1.7 3.5 0.00 0.00 0.00 72 1012.1
20260508123958 49 262 1.7 2.6 0.00 0.00 0.00 72 1012.2
20260508123458 49 267 1.7 2.6 0.00 0.00 0.00 71 1012.2
20260508122958 48 256 1.7 2.6 0.00 0.00 0.00 73 1012.1
20260508122457 48 270 1.7 3.5 0.00 0.00 0.00 74 1012.1
20260508121958 47 264 1.7 3.5 0.00 0.00 0.00 75 1012.1
20260508121458 47 260 1.7 3.5 0.00 0.00 0.00 74 1012.1
20260508120957 47 266 0.0 5.2 0.00 0.00 0.00 75 1012.1
20260508120458 47 273 2.6 3.5 0.00 0.00 0.00 77 1012.0
20260508115959 47 263 0.9 5.2 0.00 0.00 0.00 77 1012.0
20260508115457 46 252 2.6 4.3 0.00 0.00 0.00 78 1012.0
20260508114958 46 266 1.7 3.5 0.00 0.00 0.00 78 1011.9
20260508114458 46 263 1.7 3.5 0.00 0.00 0.00 78 1011.9
20260508113957 46 265 1.7 4.3 0.00 0.00 0.00 79 1011.8
20260508113457 45 253 1.7 4.3 0.00 0.00 0.00 80 1011.9
20260508112957 45 250 3.5 5.2 0.00 0.00 0.00 80 1011.8
20260508112457 45 257 1.7 5.2 0.00 0.00 0.00 80 1011.7
20260508111958 45 256 2.6 3.5 0.00 0.00 0.00 80 1011.8
20260508111458 45 259 3.5 5.2 0.00 0.00 0.00 81 1011.8
20260508110958 44 259 1.7 5.2 0.00 0.00 0.00 81 1011.7
20260508110457 44 256 2.6 3.5 0.00 0.00 0.00 80 1011.7
20260508105956 44 258 2.6 5.2 0.00 0.00 0.00 81 1011.8
20260508105456 44 257 3.5 5.2 0.00 0.00 0.00 81 1011.8
20260508104457 44 257 2.6 3.5 0.00 0.00 0.00 81 1011.7
20260508103956 44 257 2.6 3.5 0.00 0.00 0.00 81 1011.6
20260508103456 43 257 1.7 3.5 0.00 0.00 0.00 82 1011.5
20260508102957 43 257 1.7 3.5 0.00 0.00 0.00 81 1011.5
20260508102456 43 257 2.6 3.5 0.00 0.00 0.00 81 1011.5
20260508101956 43 257 2.6 3.5 0.00 0.00 0.00 80 1011.5
20260508101459 43 257 1.7 2.6 0.00 0.00 0.00 80 1011.3
20260508100956 43 257 1.7 2.6 0.00 0.00 0.00 80 1011.2
20260508100456 43 257 0.9 2.6 0.00 0.00 0.00 79 1011.2
20260508095959 44 257 1.7 2.6 0.00 0.00 0.00 78 1011.1
20260508095457 44 257 1.7 2.6 0.00 0.04 0.00 78 1011.0
20260508094457 44 257 1.7 2.6 0.00 0.04 0.00 77 1010.7
20260508093458 44 257 0.9 3.5 0.00 0.04 0.00 77 1010.8
20260508092957 44 257 1.7 3.5 0.00 0.04 0.00 76 1010.9
20260508092458 44 257 2.6 2.6 0.00 0.04 0.00 76 1010.8
20260508091957 44 257 0.9 3.5 0.00 0.04 0.00 75 1010.9
20260508091458 44 257 2.6 3.5 0.00 0.04 0.00 74 1010.9
20260508090957 44 257 2.6 3.5 0.00 0.04 0.00 74 1010.9
20260508090457 44 257 2.6 3.5 0.00 0.04 0.00 74 1010.9
20260508085958 44 257 1.7 3.5 0.00 0.07 0.00 73 1011.0
20260508085457 44 257 1.7 3.5 0.00 0.07 0.00 73 1010.9
20260508084959 44 257 2.6 3.5 0.00 0.07 0.00 73 1010.9
20260508084458 44 256 1.7 3.5 0.00 0.07 0.00 73 1010.8
20260508083958 44 256 0.9 3.5 0.00 0.07 0.00 73 1010.8
20260508083458 44 256 1.7 4.3 0.00 0.07 0.00 72 1010.9
20260508082958 44 255 4.3 5.2 0.00 0.07 0.00 72 1010.9
20260508082457 45 260 2.6 5.2 0.00 0.07 0.00 72 1010.9
20260508081958 45 265 2.6 3.5 0.00 0.07 0.00 71 1010.9
20260508081457 45 265 1.7 3.5 0.00 0.07 0.00 72 1010.9
20260508080458 45 267 0.9 2.6 0.00 0.07 0.00 72 1010.8
20260508075958 45 273 1.7 2.6 0.00 0.12 0.00 71 1010.7
20260508075456 45 275 1.7 2.6 0.00 0.12 0.00 71 1010.8
20260508074956 45 279 1.7 2.6 0.00 0.12 0.00 70 1010.7
20260508073957 45 268 0.9 2.6 0.00 0.12 0.00 72 1010.6
20260508073457 45 268 1.7 2.6 0.00 0.12 0.00 72 1010.7
20260508072956 45 268 2.6 2.6 0.00 0.12 0.00 72 1010.7
20260508072456 45 268 1.7 2.6 0.00 0.12 0.00 71 1010.6
20260508065957 43 273 2.6 6.1 0.00 0.20 0.00 72 1010.9
20260508065457 43 265 3.5 6.1 0.00 0.20 0.00 73 1010.6
20260508064957 43 266 2.6 3.5 0.00 0.20 0.00 73 1010.6
20260508064457 43 262 0.9 5.2 0.00 0.20 0.00 75 1010.3
20260508063957 43 278 0.9 2.6 0.00 0.20 0.00 76 1010.2
20260508063458 43 263 1.7 2.6 0.00 0.20 0.00 76 1010.1
20260508062957 43 257 1.7 2.6 0.00 0.20 0.00 73 1009.8
20260508061957 43 265 1.7 2.6 0.00 0.20 0.00 75 1009.8
20260508061457 43 277 0.9 2.6 0.00 0.20 0.00 77 1009.9
20260508060458 43 290 1.7 3.5 0.00 0.20 0.00 75 1009.7
20260508055957 43 268 0.9 2.6 0.00 0.20 0.00 73 1009.6
20260508055458 44 265 0.9 4.3 0.00 0.20 0.00 73 1009.5
20260508054957 44 34 0.9 4.3 0.00 0.20 0.00 67 1009.4
20260508054457 45 305 0.9 3.5 0.00 0.20 0.00 69 1009.4
20260508053957 45 306 0.9 3.5 0.00 0.20 0.00 63 1009.3
20260508052958 45 345 0.0 1.7 0.00 0.20 0.00 63 1009.4
20260508052458 46 290 0.0 2.6 0.00 0.20 0.00 68 1009.4
20260508051457 47 339 0.9 7.0 0.00 0.20 0.00 54 1009.4
20260508050957 47 348 0.0 7.0 0.00 0.20 0.00 52 1009.3
20260508050458 47 69 1.7 4.3 0.00 0.20 0.00 53 1009.3
20260508045458 47 119 0.9 3.5 0.00 0.20 0.00 53 1009.4
20260508044958 47 41 0.9 3.5 0.00 0.20 0.00 52 1009.4
20260508044458 47 52 0.0 3.5 0.00 0.20 0.00 53 1009.3
20260508043958 47 51 0.9 3.5 0.00 0.20 0.00 52 1009.4
20260508043459 47 86 0.0 3.5 0.00 0.20 0.00 53 1009.4
20260508042958 47 18 0.9 4.3 0.00 0.20 0.00 52 1009.5
20260508042458 48 360 0.9 4.3 0.00 0.20 0.00 53 1009.5
20260508041958 48 46 4.3 4.3 0.00 0.20 0.00 54 1009.6
20260508041458 48 57 0.9 5.2 0.00 0.20 0.00 52 1009.6